Wind_Speed
6 6 6 6 6 7 7 7 7 7 7 7 6 6 5 4 4 5 5 5 5 5 5 4 4 4 4 4 5 7 8 9 9 10 11 11 11 11 11 12 11 11 10 10 10 10 10 9 8 7 5 5 6 6 6 5 7 9 10 8 5 5 9 14 18 22 21 23 25 23 22 20 18 19 16 14 12 10 13 13 13 15 11 10 13 15 17 16
7 7 7 7 7 7 7 7 7 7 7 7 7 7 6 6 5 5 5 5 5 5 5 5 4 4 4 4 4 5 6 8 9 10 11 11 12 12 12 13 12 11 11 12 12 12 12 12 11 10 8 7 7 7 6 4 5 8 8 7 5 4 4 8 14 18 19 21 23 23 22 20 19 19 17 16 15 14 15 16 16 15 14 14 16 16 16 15
7 7 7 7 7 7 7 7 8 8 7 7 7 7 7 7 7 7 6 6 6 5 5 5 4 4 3 4 4 4 5 6 9 10 11 11 12 12 13 13 13 13 14 14 14 13 14 14 13 12 10 9 8 7 6 3 4 5 6 5 4 3 2 3 9 17 20 20 22 22 21 20 20 20 18 17 16 15 15 16 17 17 16 17 18 16 16 16
8 8 8 8 8 8 8 8 8 8 7 7 8 8 8 8 8 8 7 7 7 6 6 5 5 4 3 3 3 3 4 5 7 9 11 12 12 12 12 14 14 14 14 15 15 15 16 15 13 13 10 9 8 8 6 3 2 4 4 4 2 2 2 1 5 13 21 22 21 22 21 20 20 21 20 19 19 16 13 12 13 14 15 18 18 17 17 16
8 8 8 8 8 9 8 8 8 8 8 8 8 8 9 9 8 8 8 7 8 7 7 6 5 4 3 2 3 4 4 5 6 8 10 11 12 12 12 13 15 15 14 15 16 16 15 14 14 13 10 8 7 6 4 2 1 2 2 2 4 5 4 3 4 10 20 23 22 23 21 19 20 22 22 22 19 11 8 8 8 9 11 16 16 16 17 16
9 9 9 9 9 9 9 9 9 8 8 9 9 9 9 9 9 8 8 8 8 7 7 7 6 5 4 1 2 3 4 6 7 8 9 11 13 13 13 14 14 15 15 15 16 16 14 14 14 12 12 9 6 3 1 1 3 4 3 5 7 7 8 7 7 11 19 25 25 23 21 19 21 23 23 24 17 7 6 6 5 6 8 13 15 16 16 15
9 9 9 9 9 9 9 9 9 9 9 9 9 9 9 9 9 9 9 8 8 7 7 7 7 6 6 3 0 2 5 7 7 8 8 11 13 14 14 14 15 15 15 15 15 15 14 14 13 13 13 10 5 1 3 4 5 7 6 7 8 9 10 10 10 13 19 26 26 24 23 22 23 26 26 24 17 10 8 6 5 6 10 13 14 15 14 14
9 9 8 8 8 8 8 8 8 8 9 9 9 9 9 9 9 9 9 9 8 8 7 7 7 7 6 5 2 0 3 5 6 7 8 10 12 14 15 15 16 15 15 16 16 15 15 15 13 14 13 9 4 2 4 6 6 8 8 8 8 9 10 10 12 14 19 27 28 27 26 22 23 26 26 23 17 13 11 10 8 8 12 14 13 14 15 14
8 8 7 7 7 8 8 8 8 8 9 9 9 10 9 9 9 9 9 9 9 8 8 7 7 6 6 5 4 1 2 5 6 7 9 10 12 13 15 16 16 16 17 17 18 18 17 15 14 15 11 8 5 2 5 7 7 8 9 7 6 7 9 10 11 12 17 27 29 28 26 23 23 24 25 23 19 16 13 14 11 8 10 14 13 14 15 14
8 7 7 7 7 7 7 7 8 8 9 9 10 10 9 9 9 9 9 8 9 8 9 9 9 8 7 6 4 2 1 2 3 6 8 10 12 12 14 15 15 17 18 18 20 19 16 15 15 15 11 7 4 1 5 6 6 8 7 5 5 7 9 10 9 9 15 25 28 27 26 25 26 25 26 25 21 18 16 16 14 9 9 12 13 14 15 14
7 6 6 6 6 6 6 7 7 8 9 9 9 9 9 9 9 9 9 9 10 10 11 12 13 13 12 11 6 3 3 3 2 3 7 9 13 14 14 15 16 17 18 19 18 16 15 16 16 15 10 6 3 1 3 5 5 7 6 6 6 7 7 9 7 5 13 23 27 26 25 25 27 25 24 24 23 22 18 17 17 11 9 12 13 13 14 15
6 6 5 5 5 6 6 7 7 7 8 8 9 9 9 10 10 10 10 10 10 11 13 15 17 18 18 17 12 7 6 5 4 1 8 9 12 16 16 16 17 17 19 18 16 17 18 18 17 14 9 7 5 4 1 2 2 6 7 6 7 6 6 6 4 5 12 22 26 25 24 24 25 24 22 22 23 22 18 16 16 12 11 13 13 13 14 15
6 5 5 5 5 5 6 6 7 7 7 8 8 9 10 10 11 11 11 10 10 10 13 16 19 20 19 18 16 13 10 7 6 1 9 10 11 15 16 16 17 18 19 17 16 20 20 18 17 14 11 9 6 5 3 4 5 5 7 5 5 5 5 4 3 6 12 21 25 24 24 24 23 24 26 25 23 22 20 16 14 13 13 16 15 15 15 14
5 4 4 4 5 5 6 6 6 6 7 8 8 9 10 11 12 12 12 11 9 9 11 14 17 19 18 17 19 18 15 11 7 2 7 11 12 15 16 16 17 18 19 17 19 23 19 16 18 16 12 8 7 6 4 5 6 5 4 4 4 4 3 3 1 8 13 18 22 22 25 25 24 26 28 29 26 22 19 14 12 15 17 17 17 16 15 15
4 3 4 4 4 5 5 6 6 6 7 8 8 8 9 12 13 13 14 12 11 10 10 12 14 17 18 17 19 19 18 16 9 4 7 11 13 15 16 15 15 17 19 18 21 23 19 17 19 16 12 8 7 7 5 5 7 7 5 4 4 3 1 1 1 8 12 15 20 22 24 25 25 28 29 30 28 22 17 11 11 17 18 18 18 17 16 16
3 3 3 3 4 4 5 5 5 6 6 8 8 8 8 13 15 15 15 14 14 13 11 10 12 15 16 16 18 19 19 19 10 4 8 11 13 14 16 15 15 16 18 20 22 23 21 20 19 17 13 8 8 8 6 7 8 8 8 5 4 4 3 3 2 7 12 15 20 22 22 24 26 28 29 29 27 21 16 11 12 17 18 19 18 17 17 17
3 2 2 3 4 4 4 4 5 6 7 8 8 7 6 10 12 13 14 14 14 15 13 10 10 11 14 16 17 18 18 19 13 2 7 10 12 13 14 13 13 16 18 21 24 25 23 21 19 17 14 10 10 9 8 11 12 12 12 9 6 6 5 6 5 8 14 17 20 21 21 24 26 26 29 30 27 22 17 12 13 17 18 18 16 16 16 15
2 2 2 2 3 3 3 4 5 6 8 9 8 7 4 4 3 6 9 11 12 13 14 13 12 8 11 16 15 16 16 15 12 4 4 8 11 12 13 12 12 17 20 23 24 24 23 22 19 18 16 14 13 14 14 14 13 12 11 9 8 8 7 7 7 9 16 19 19 20 20 25 26 26 29 29 28 25 19 14 13 16 17 15 15 15 14 12
2 1 1 2 2 2 2 3 5 7 7 8 8 8 5 2 3 4 5 9 10 12 12 13 13 10 11 15 14 15 13 11 10 5 0 4 8 9 9 10 12 17 21 22 22 21 21 21 20 19 19 19 18 19 18 10 5 6 7 8 7 9 8 7 8 10 17 20 20 19 20 25 28 28 29 28 28 26 21 18 15 16 14 13 15 15 13 11
2 1 1 1 2 1 1 3 5 6 7 7 7 6 5 3 5 8 8 8 9 11 11 11 12 10 11 13 14 14 13 10 9 8 4 2 6 6 7 8 9 14 19 19 19 19 18 18 21 22 22 23 21 19 17 9 3 3 8 10 10 10 9 8 9 12 17 20 20 17 15 21 26 27 28 28 28 26 24 23 19 18 15 12 15 15 13 12
2 1 1 1 1 1 1 3 4 6 6 6 6 7 8 7 7 9 10 9 9 9 10 11 11 11 10 11 13 14 13 9 8 10 7 4 6 5 6 7 5 9 14 16 17 18 17 18 23 25 23 23 22 19 17 15 10 7 8 9 11 13 11 10 11 13 17 20 20 18 18 23 27 26 29 31 30 28 27 26 24 22 19 15 14 14 14 14
2 2 2 2 2 2 1 1 4 5 6 6 8 9 11 10 9 9 8 7 9 9 10 11 11 11 11 11 11 11 11 9 7 10 8 5 6 6 7 7 5 4 8 13 15 16 19 23 25 23 17 19 22 20 18 19 16 12 11 10 12 16 14 12 14 14 16 20 21 21 22 28 32 30 31 33 33 30 28 29 29 27 25 21 19 14 14 18
2 2 2 2 3 3 2 1 3 6 6 7 7 8 10 10 9 9 8 6 6 9 10 10 10 11 11 12 11 8 9 9 8 10 8 7 7 7 7 6 5 4 4 8 11 13 19 22 19 17 14 16 20 20 20 20 17 15 14 14 15 17 16 15 17 16 16 19 20 22 23 28 34 34 34 34 35 33 29 30 32 31 29 27 23 18 16 18
3 3 3 3 3 3 2 2 3 4 5 6 6 7 8 10 10 8 7 6 5 6 7 7 8 9 11 12 11 9 9 10 10 10 8 8 8 6 4 3 4 4 3 2 6 10 15 12 9 11 12 13 16 17 19 20 20 17 16 17 16 17 19 16 15 16 17 18 19 20 22 27 32 34 35 36 36 35 32 32 34 33 32 30 27 23 20 19
3 3 3 4 4 3 2 2 3 4 5 4 5 5 6 8 10 8 6 5 6 7 5 5 6 7 9 11 11 9 9 11 11 9 8 8 6 3 3 1 0 1 2 4 6 12 13 7 6 11 11 12 14 15 19 21 20 18 18 19 17 17 20 18 15 16 19 19 20 21 18 20 29 33 34 37 37 37 35 35 36 35 34 33 29 26 24 22
3 4 3 4 4 3 2 2 4 6 5 3 4 5 5 7 7 7 7 4 6 8 6 5 5 5 7 8 9 8 8 10 11 8 5 5 5 2 1 3 5 4 5 8 10 12 10 7 9 13 12 12 14 15 19 19 18 19 18 16 16 19 23 22 18 17 19 17 18 23 18 12 22 32 34 37 39 39 37 36 37 37 35 35 32 29 27 26
4 4 4 4 4 3 2 2 5 6 5 3 3 4 6 7 7 7 5 2 4 6 7 8 7 5 6 7 7 8 8 7 9 10 4 3 6 2 1 5 6 6 8 10 12 10 8 10 11 12 14 14 15 16 18 18 16 18 15 12 15 19 24 27 22 18 17 13 13 23 23 10 14 28 33 36 40 41 39 38 38 39 37 36 34 31 29 27
4 4 4 4 5 3 3 3 6 7 5 4 2 4 6 7 7 6 4 1 4 6 4 7 8 5 4 5 5 6 8 6 6 10 6 3 6 3 2 5 6 6 6 10 13 11 10 11 10 10 13 14 14 14 16 17 16 15 13 14 17 18 24 26 23 20 18 12 13 22 26 11 9 20 28 34 39 42 42 40 40 42 40 37 36 34 32 30
5 4 4 5 5 3 4 5 7 8 6 4 2 3 6 7 5 3 2 1 4 7 5 6 8 6 2 2 4 3 4 4 5 8 7 5 5 4 4 4 5 6 5 8 12 11 11 11 9 10 10 11 10 10 13 16 16 16 16 17 19 20 22 21 19 18 14 10 13 22 28 16 7 14 26 33 38 42 46 44 42 43 42 40 38 36 34 33
5 5 4 4 4 4 5 7 8 8 6 5 2 3 5 5 3 0 0 2 4 7 8 10 10 7 3 1 4 4 1 1 2 4 5 6 4 4 5 4 5 7 7 7 9 11 12 10 9 10 9 9 7 8 11 14 16 19 16 15 17 17 18 18 16 11 5 7 14 22 31 21 5 11 28 32 23 23 38 48 46 43 44 43 41 38 36 35
6 5 4 4 5 5 6 8 8 8 7 5 2 3 3 5 5 2 1 2 4 7 10 12 9 4 3 5 5 5 4 3 1 2 2 4 4 4 5 4 6 8 6 6 9 11 10 8 8 9 10 8 6 8 11 13 16 18 16 15 14 12 12 12 10 4 1 6 9 14 27 26 10 10 21 22 11 8 23 42 48 45 45 44 43 40 37 36
6 5 4 4 5 6 6 8 8 8 7 4 2 2 1 4 6 5 5 3 3 7 10 12 8 3 9 10 7 6 6 5 3 3 2 3 3 4 3 4 7 8 7 8 12 12 6 4 6 8 8 7 6 7 8 11 13 15 20 20 12 6 3 4 3 2 5 9 8 9 19 23 17 14 12 14 14 12 15 27 40 43 42 44 43 41 39 37
5 5 4 5 6 6 6 7 8 9 7 5 4 4 4 5 4 6 9 7 6 8 9 9 7 6 9 8 5 4 4 3 6 6 4 4 3 2 2 2 5 7 8 9 12 13 5 1 3 3 2 3 5 7 5 13 17 18 21 22 13 6 2 0 1 1 5 12 13 12 13 15 17 15 10 11 12 13 11 13 25 34 38 41 41 41 40 38
5 5 4 4 6 6 6 8 9 9 8 6 4 6 6 5 4 5 9 10 8 8 6 6 6 7 6 6 6 5 3 4 7 7 7 6 2 2 1 2 2 5 7 7 10 11 6 2 3 6 7 4 7 9 4 11 18 22 21 19 15 8 4 3 4 4 3 2 3 9 11 10 13 10 9 10 10 14 14 10 16 26 34 39 39 40 41 40
5 4 4 4 5 6 6 9 10 10 9 7 4 4 4 4 5 6 9 10 7 6 5 5 6 6 5 6 6 5 3 5 8 7 8 6 2 2 4 6 7 8 7 7 8 8 7 6 7 9 10 9 10 10 1 8 14 20 21 18 13 10 10 7 6 11 9 4 5 13 11 11 16 13 10 10 10 15 16 15 18 24 33 39 39 40 41 41
4 4 3 4 5 5 6 9 10 10 10 7 2 2 3 4 5 7 10 9 6 6 4 3 5 6 6 5 4 4 3 5 7 7 8 5 4 4 6 8 11 12 9 7 7 7 9 9 8 9 6 8 13 9 2 7 9 14 20 20 12 8 11 9 7 10 8 2 4 12 12 13 15 13 13 13 10 13 17 19 22 24 31 40 41 41 42 42
3 3 4 4 4 4 6 9 9 9 9 6 3 2 3 4 4 6 9 8 6 7 5 3 5 7 6 5 5 4 3 5 7 7 7 5 4 5 5 6 9 11 9 7 5 7 11 12 11 10 5 10 14 5 4 5 5 7 15 19 12 6 10 11 7 4 4 2 3 11 15 14 10 9 13 16 13 13 16 19 22 23 28 36 40 42 42 42
1 3 5 5 5 4 5 8 9 8 7 5 4 4 3 4 4 4 8 7 4 5 6 4 5 6 5 6 6 6 4 4 6 6 5 4 3 5 7 5 7 8 8 7 5 7 11 11 11 9 4 11 15 3 6 4 5 3 8 16 11 5 7 11 8 3 3 2 1 6 11 13 15 13 12 14 14 13 14 18 22 23 26 30 36 40 42 42
4 6 7 7 7 5 5 6 8 8 7 5 4 3 3 5 3 1 5 6 2 3 6 4 3 4 3 4 5 5 5 5 6 6 4 3 3 5 8 7 6 7 7 7 7 8 11 9 8 7 3 9 16 10 9 8 5 2 7 17 12 7 6 8 7 5 3 3 1 2 3 10 18 18 13 12 13 12 13 17 21 23 24 25 30 36 41 43
9 9 8 8 8 5 5 6 7 8 7 5 2 2 1 3 5 5 1 3 2 2 3 2 4 4 2 2 4 3 5 5 4 4 4 3 3 2 4 7 7 7 7 7 8 9 10 8 10 12 6 6 17 20 19 17 14 10 6 13 7 6 7 7 7 7 5 3 3 2 2 8 14 16 15 13 12 12 12 13 17 21 22 22 24 31 38 42
11 10 7 7 7 5 6 5 5 8 8 3 0 2 2 2 3 4 3 1 3 4 2 1 2 2 1 3 3 1 3 3 1 3 2 2 2 1 2 7 8 7 7 7 8 9 9 9 13 16 10 5 11 17 16 15 14 15 13 9 2 4 3 6 5 7 8 5 5 5 3 6 8 14 17 14 12 12 10 10 12 15 16 18 20 25 31 37
11 11 8 7 6 6 6 6 6 9 7 1 2 3 5 4 3 1 2 4 5 7 3 1 0 0 1 2 2 1 2 2 0 2 3 3 2 1 2 6 8 8 8 7 9 10 9 8 12 14 11 6 3 6 14 14 6 5 12 11 5 6 3 4 3 2 5 6 7 7 3 2 6 15 18 16 14 13 11 10 11 11 12 13 16 20 25 30
11 12 11 9 6 6 7 8 10 10 5 1 4 3 5 7 7 5 5 5 6 7 4 1 1 1 2 2 2 3 2 1 1 1 4 5 2 1 3 6 8 9 8 6 9 11 8 6 10 13 11 5 7 5 5 10 7 4 10 13 8 7 6 4 5 2 2 3 5 6 1 0 6 13 17 17 15 14 12 12 11 11 10 11 14 17 21 26
13 13 13 12 9 7 7 8 8 7 6 7 6 5 6 8 7 8 9 8 6 6 6 7 5 3 3 4 3 3 2 1 2 2 2 2 2 1 2 6 8 8 6 5 8 11 8 6 9 10 8 5 4 6 6 5 10 12 13 15 12 8 4 3 7 5 4 3 5 5 1 1 7 11 15 17 15 14 14 12 11 11 9 10 13 17 20 22
15 15 15 15 13 10 10 10 9 9 9 9 7 5 8 7 3 7 10 9 8 6 6 7 8 6 3 3 3 3 3 4 4 5 5 5 5 4 4 5 5 5 4 5 7 9 8 7 6 4 3 2 2 5 6 7 11 14 14 14 14 11 6 1 4 6 6 5 4 3 1 1 9 13 14 16 16 15 14 12 11 10 9 10 13 16 18 19
17 17 17 16 15 14 15 14 13 13 12 10 8 8 9 6 3 7 10 9 9 5 2 4 7 8 5 3 2 3 3 5 5 5 6 8 9 8 6 7 6 6 6 6 7 8 6 5 6 5 5 5 3 4 3 5 8 11 14 15 14 13 11 6 1 2 3 4 2 1 2 4 10 13 13 16 18 17 14 12 10 10 10 12 14 17 18 19
17 19 18 17 15 16 18 18 17 17 15 13 11 11 11 6 4 8 11 10 8 6 4 5 6 7 7 4 2 2 2 3 3 5 7 8 10 11 11 11 10 8 8 7 6 5 4 4 5 6 3 4 4 0 2 1 4 8 12 13 14 13 13 9 4 4 2 2 1 4 4 5 9 12 12 13 16 16 13 9 7 7 9 11 13 15 17 18
17 20 20 19 17 16 18 20 20 19 17 15 13 13 14 9 7 9 11 10 8 7 7 6 5 6 7 5 3 1 1 3 4 5 7 8 10 11 11 11 12 9 6 4 4 3 2 4 5 5 2 1 2 1 2 5 6 5 8 11 13 14 13 11 9 8 4 1 1 5 5 4 7 8 8 8 11 12 9 7 6 5 6 8 9 12 15 16
15 18 20 22 22 20 18 19 20 20 19 17 14 13 13 9 6 7 10 11 10 10 10 9 6 5 6 6 6 5 4 4 5 4 5 8 7 5 5 5 6 7 5 2 3 3 2 3 4 4 2 3 5 6 4 6 10 9 9 9 10 12 12 9 9 10 7 2 3 4 3 3 6 6 5 4 8 10 8 7 7 6 6 7 8 10 12 12
15 16 18 21 24 24 22 19 19 20 19 17 14 11 9 5 3 4 9 12 12 12 13 12 8 5 5 5 7 7 6 6 8 5 3 5 4 2 3 5 5 4 2 2 2 3 3 2 3 1 3 7 8 10 9 7 9 10 9 9 9 9 10 6 4 6 6 2 2 4 3 4 7 9 6 2 5 7 6 4 4 5 6 7 8 10 11 12
14 15 16 19 21 24 25 23 21 20 19 17 15 12 9 6 2 3 9 13 14 14 13 13 11 9 8 8 8 8 7 6 8 7 5 6 6 4 3 4 6 5 3 3 4 2 1 1 3 2 5 10 9 7 8 9 9 11 12 11 12 11 10 7 4 4 3 3 3 4 4 5 8 9 6 3 4 4 4 3 2 3 5 6 6 8 10 12
14 15 16 18 19 20 23 25 25 23 21 20 18 14 11 8 3 3 7 13 13 13 13 12 12 10 10 11 9 8 7 7 7 8 8 7 7 5 5 5 7 6 3 4 5 1 0 1 0 1 2 9 9 5 8 9 7 9 10 10 10 9 8 7 5 4 1 2 4 4 4 5 6 5 4 1 4 4 4 4 4 4 5 5 6 8 10 12
Wind_Direction
21 19 19 17 15 14 16 17 14 15 16 15 12 9 5 358 350 340 330 324 318 313 307 299 290 279 270 259 249 240 230 226 223 223 221 219 218 207 204 211 213 211 203 197 201 201 196 193 194 194 181 139 114 124 129 104 88 85 74 70 103 155 181 188 193 190 190 189 186 188 191 195 198 192 191 183 176 179 158 155 175 179 180 182 179 166 152 151
25 24 25 25 25 23 24 27 26 25 24 22 20 20 20 20 17 8 359 350 340 332 322 311 295 278 269 260 253 243 228 221 217 218 218 215 215 208 201 203 206 206 201 197 199 198 191 193 193 190 188 164 145 141 133 106 87 86 72 63 83 109 156 195 203 203 204 200 192 190 191 198 208 201 192 185 181 180 167 166 178 183 185 183 175 163 151 150
29 29 29 30 32 33 33 35 34 33 29 25 23 22 22 22 22 19 16 12 6 360 349 338 321 296 274 260 255 243 226 216 211 212 214 211 211 210 201 197 200 200 198 197 198 197 194 196 194 193 199 186 168 162 150 115 82 75 67 61 68 80 84 182 204 209 213 211 201 197 194 196 208 208 196 188 189 188 178 170 175 181 181 176 170 158 150 151
32 33 35 36 37 38 38 37 36 35 31 27 24 21 21 21 20 17 15 15 14 15 11 3 351 334 305 263 247 236 218 209 207 205 210 211 207 209 204 195 198 198 194 196 199 201 204 200 194 199 207 201 192 187 175 143 80 54 66 61 24 348 347 238 222 213 213 215 210 205 202 200 205 208 201 194 194 193 183 171 178 184 170 167 164 153 152 155
32 34 37 39 39 40 39 38 37 35 33 31 27 24 22 20 19 17 15 15 16 19 20 18 11 3 352 292 235 225 212 200 199 196 203 209 206 206 205 197 197 197 191 193 200 204 207 203 194 197 199 201 206 192 168 137 4 15 47 345 326 313 302 264 242 219 214 216 214 212 210 208 208 206 202 199 198 190 166 158 186 197 169 163 161 154 155 156
31 34 38 39 40 41 40 38 36 35 33 31 29 26 24 22 18 16 14 16 19 21 20 24 24 21 20 1 227 212 199 188 190 193 195 203 204 201 203 201 197 197 189 190 201 204 204 204 195 188 183 188 197 176 114 359 307 310 299 294 299 292 290 277 245 224 217 214 211 210 210 212 208 202 200 199 197 177 133 136 176 193 174 168 162 158 158 154
31 34 37 40 40 40 38 36 33 31 29 26 25 23 21 18 14 12 11 13 17 21 19 23 26 29 35 36 29 210 200 193 191 185 184 196 201 197 198 200 199 197 188 189 201 202 203 202 191 184 180 175 175 181 324 312 295 295 287 283 288 288 293 291 260 235 223 215 209 203 204 209 199 191 194 195 194 179 157 158 167 167 172 173 165 161 157 151
31 33 37 39 38 37 35 32 29 26 23 21 19 17 15 12 10 9 7 8 12 18 20 22 27 32 37 46 60 142 199 194 198 191 183 187 194 196 195 194 198 196 187 190 197 199 203 198 190 193 181 159 164 255 296 280 281 283 283 284 287 291 299 298 270 248 227 213 207 202 201 203 192 186 189 190 191 183 173 182 175 163 174 173 168 164 157 153
30 32 35 35 35 33 30 27 23 19 17 15 13 11 11 9 10 11 12 15 17 22 27 31 37 37 40 48 51 57 160 178 193 200 196 189 188 193 193 191 193 193 189 190 193 196 197 190 193 197 177 159 180 262 287 268 279 285 286 283 281 294 305 306 281 257 228 207 201 202 199 193 188 188 190 187 190 188 184 191 183 173 180 173 171 168 158 156
29 30 31 30 30 28 25 21 16 14 12 12 12 13 15 18 22 25 29 31 32 37 41 48 51 46 46 43 44 68 136 217 205 194 200 199 193 190 191 192 190 191 192 191 193 194 186 181 192 193 177 175 184 321 288 266 280 285 285 277 279 296 306 315 298 252 219 200 193 198 198 188 185 190 191 186 192 198 192 191 190 190 190 179 176 172 161 157
28 28 27 24 25 22 20 16 13 14 15 19 23 25 30 34 40 44 46 47 48 51 54 57 55 50 49 46 42 32 2 315 286 198 195 196 193 189 188 190 190 192 193 193 193 183 172 177 190 190 182 186 172 69 263 255 274 269 264 269 281 292 308 319 302 231 200 191 187 192 194 186 184 191 191 187 195 202 197 191 191 199 202 190 182 176 167 159
25 27 22 18 18 17 15 12 15 19 26 34 39 43 46 49 54 57 57 54 54 58 62 61 55 54 53 48 42 20 1 332 332 174 186 183 182 186 184 185 187 191 194 193 186 171 171 182 189 189 185 189 164 101 149 184 217 238 243 264 282 295 320 322 283 210 183 184 186 187 186 183 186 194 188 184 197 199 196 193 193 205 205 192 185 182 179 164
24 25 17 13 12 12 11 12 22 30 38 46 49 55 57 60 65 65 62 56 54 57 65 65 56 54 53 46 42 32 18 347 342 145 190 183 169 180 181 179 183 188 192 190 176 168 175 189 193 188 181 182 155 120 154 157 148 206 238 262 281 298 327 339 277 204 180 182 188 185 182 182 185 191 180 175 189 190 190 196 200 208 200 189 185 186 188 168
20 22 14 8 6 7 9 16 29 39 47 52 55 60 65 71 75 71 64 57 55 56 68 72 57 50 47 40 37 35 31 15 2 88 183 179 165 177 178 175 182 187 188 184 175 172 179 196 198 188 181 177 152 153 189 173 165 197 238 256 260 287 331 4 289 195 187 187 191 188 185 182 177 183 176 171 181 184 186 196 203 198 190 188 184 187 192 167
16 20 9 2 2 3 10 22 36 48 55 57 55 58 68 81 83 75 67 62 63 61 71 77 61 50 42 34 34 34 33 22 15 100 153 169 165 172 176 176 183 187 185 181 177 176 184 200 199 188 185 183 166 180 205 189 182 193 212 223 228 261 256 63 131 183 194 192 192 193 188 180 176 179 176 174 178 182 188 196 198 191 187 188 183 187 188 162
12 15 3 356 358 2 15 30 46 53 59 61 58 59 76 89 87 78 71 69 70 68 71 75 64 53 40 33 34 34 33 25 22 116 145 158 162 166 172 177 181 186 185 180 178 179 188 200 199 191 186 184 189 205 211 196 198 203 209 210 223 257 222 187 159 171 194 195 189 193 189 182 183 182 179 178 176 178 189 197 197 192 189 185 181 185 178 160
7 12 358 349 355 5 23 41 54 54 56 57 56 57 83 100 88 73 67 67 70 66 65 66 61 52 38 36 34 31 35 31 28 94 160 156 161 164 167 172 176 181 182 181 182 184 192 200 200 196 188 188 206 216 205 198 202 203 208 217 229 251 236 204 188 169 185 192 188 191 192 188 190 189 185 181 173 175 189 198 201 196 189 183 179 182 174 160
1 6 353 343 351 7 35 56 60 58 59 57 54 52 83 122 74 51 60 63 64 60 60 57 53 49 33 35 33 26 34 36 32 55 169 163 162 162 163 166 171 179 184 185 187 189 196 201 202 201 197 198 208 210 206 206 208 204 211 224 218 218 227 216 202 179 180 185 185 188 194 193 191 190 191 185 173 176 188 193 202 198 188 184 181 183 179 166
346 348 346 335 344 5 47 65 63 61 59 55 52 50 58 60 25 48 78 73 64 58 60 53 48 46 30 34 36 30 40 41 30 37 229 180 159 154 159 164 168 180 187 190 192 195 200 203 205 207 205 203 203 208 212 214 216 230 249 257 232 212 218 219 205 189 184 183 184 189 196 193 187 187 191 188 178 179 186 187 196 199 191 188 187 191 191 179
322 305 308 309 325 341 46 65 63 60 55 48 49 57 70 79 76 82 87 83 67 58 56 50 50 46 34 41 44 47 57 51 40 47 37 124 138 139 158 162 168 182 190 194 195 201 206 208 211 211 208 203 201 212 218 211 203 275 268 258 245 229 222 216 203 191 188 187 187 188 186 186 188 189 190 190 185 181 186 190 193 196 197 199 198 201 202 196
305 283 248 255 286 290 43 74 74 67 61 54 50 64 82 93 89 77 77 77 65 58 51 43 44 39 43 58 56 59 61 50 54 51 41 97 118 125 152 151 155 183 194 195 197 206 216 219 216 213 212 207 208 220 220 213 222 255 261 248 242 234 221 212 207 194 189 190 191 185 178 185 191 192 191 192 190 185 189 196 198 198 199 204 211 213 207 208
297 279 244 227 247 256 226 97 87 78 67 56 46 47 57 63 61 53 59 69 57 54 49 37 37 40 57 70 65 64 55 46 51 40 44 99 104 108 131 130 125 161 192 198 202 211 221 226 220 214 216 215 217 224 220 217 229 245 252 249 243 232 217 205 207 203 195 194 196 191 187 192 192 190 192 195 194 191 194 199 201 202 199 203 215 218 209 211
290 280 246 223 233 242 235 166 105 89 72 60 49 38 40 44 44 36 35 50 55 48 43 38 44 54 64 65 62 61 51 51 50 38 58 110 109 107 118 118 121 133 159 198 206 216 229 231 224 218 222 223 222 221 218 221 228 232 239 248 251 235 217 204 200 200 200 199 202 200 198 198 194 191 193 196 195 195 199 202 203 204 203 205 213 216 214 217
287 280 250 230 229 236 244 209 140 106 83 71 55 40 41 43 41 32 22 35 54 49 48 47 49 61 65 58 56 59 57 59 62 61 75 107 107 82 61 92 134 141 116 210 225 245 247 232 231 240 238 238 231 215 212 218 216 220 237 246 250 238 222 212 202 197 196 202 208 206 206 210 204 196 194 196 197 198 200 203 204 205 206 207 211 214 217 224
285 279 254 238 232 234 243 205 159 127 106 89 63 45 47 49 45 42 32 38 53 56 66 62 58 67 62 52 49 55 63 62 68 80 78 76 77 29 9 58 130 95 23 339 296 273 253 225 264 270 258 253 242 215 205 210 214 226 239 239 244 246 231 220 209 192 188 203 214 204 205 221 216 206 201 199 201 202 202 203 205 208 208 206 210 213 214 222
282 280 259 241 237 231 233 200 152 133 126 113 72 48 44 43 37 37 38 44 60 62 62 54 63 68 52 48 46 46 63 66 63 73 81 48 23 351 338 309 315 337 344 332 306 277 257 261 291 284 269 258 252 229 204 204 224 236 233 235 249 251 237 227 218 197 190 204 215 206 203 224 222 212 206 204 205 205 203 204 206 208 209 207 208 212 213 217
279 280 261 243 236 224 224 193 154 148 148 133 76 44 36 23 9 14 12 4 50 51 48 42 47 62 53 46 39 37 50 62 53 51 73 44 14 6 335 329 324 329 335 325 303 287 287 288 295 293 274 258 253 235 203 201 230 236 228 245 260 249 238 235 226 210 205 203 196 203 207 223 235 220 210 207 208 207 206 209 209 206 209 209 207 209 213 217
279 277 261 242 236 219 196 169 162 165 163 147 90 41 28 5 356 6 357 331 41 23 25 34 32 49 74 53 31 32 42 46 43 41 48 25 12 5 342 346 336 326 326 315 299 297 309 298 299 301 275 254 244 221 198 203 225 233 240 263 262 243 233 229 219 210 210 196 178 195 204 217 259 229 211 208 210 210 209 211 211 209 209 208 206 207 211 217
279 273 258 242 235 211 173 167 171 172 167 162 139 45 16 352 345 11 19 60 30 15 15 16 10 2 332 36 39 23 22 27 34 38 35 14 6 4 352 341 327 323 314 311 306 307 315 308 307 302 272 250 239 220 213 217 225 236 248 258 248 229 217 209 204 208 207 197 195 199 199 203 262 233 207 204 210 215 213 211 211 212 211 208 208 207 209 215
278 270 255 241 228 203 179 176 180 179 175 172 126 31 4 0 3 51 43 13 20 20 14 5 3 355 302 250 65 55 43 9 24 39 32 20 15 6 0 344 328 330 317 307 320 326 317 301 293 288 267 254 252 253 245 231 232 239 244 244 225 203 193 192 199 205 203 228 228 215 203 199 245 231 205 203 212 222 216 210 209 211 212 212 210 209 209 213
280 270 250 238 219 205 192 184 186 184 180 174 113 13 9 56 53 68 98 39 27 20 12 12 14 32 113 139 119 88 126 160 71 62 30 16 21 6 352 344 334 331 322 315 329 332 311 284 280 272 265 265 259 262 255 237 236 237 230 221 199 171 169 184 202 207 242 252 249 231 209 203 227 231 210 217 231 240 221 212 209 209 211 213 213 212 211 212
281 269 244 229 215 211 204 191 190 189 184 174 109 37 109 88 57 55 59 32 11 13 11 18 23 104 116 119 127 104 126 140 50 32 343 334 353 359 349 354 349 339 336 336 337 334 304 260 269 254 252 262 258 263 248 219 220 216 204 194 168 121 142 177 206 220 245 252 276 265 207 201 233 247 233 243 236 227 230 219 215 211 208 210 213 214 213 212
280 264 240 225 214 215 209 194 193 193 184 161 108 85 104 101 61 44 39 25 11 15 13 18 37 120 118 103 102 82 105 86 26 20 359 328 301 324 1 358 345 343 342 337 340 343 342 212 244 226 209 250 275 291 229 180 185 196 196 188 167 116 79 206 246 270 268 264 272 262 207 204 248 255 239 241 227 221 230 219 218 215 208 206 209 213 214 213
279 262 240 226 218 216 205 193 196 194 177 154 113 85 89 86 62 38 23 12 3 13 28 38 61 117 114 70 54 51 63 35 24 20 7 357 259 232 67 67 352 358 355 341 346 349 341 300 320 4 7 317 301 312 270 170 182 200 201 197 194 185 165 179 217 211 209 293 246 202 189 215 246 238 218 222 213 215 221 211 213 214 210 208 208 211 213 213
283 263 236 225 222 219 205 194 197 193 176 158 120 80 82 79 69 49 15 3 4 24 49 63 69 93 89 61 44 33 45 33 23 8 359 10 148 155 82 66 35 24 16 352 353 351 321 298 306 331 344 336 330 328 288 157 180 199 201 199 202 211 207 196 225 232 209 109 135 178 193 232 232 222 220 221 214 212 211 207 208 210 209 208 209 211 213 213
281 258 224 207 213 218 206 197 199 195 185 179 163 73 91 112 89 51 26 18 28 37 45 80 68 57 56 61 48 29 42 35 23 11 11 43 109 87 65 56 33 25 20 360 358 0 328 302 294 299 319 357 350 336 181 164 179 195 203 203 200 223 232 222 237 239 216 168 183 195 215 241 237 235 232 228 228 215 206 204 206 208 209 209 210 212 212 213
274 239 209 193 193 206 201 200 206 202 194 193 175 111 103 128 113 55 41 37 37 33 26 59 54 32 31 54 58 58 69 50 29 17 27 58 93 59 46 52 32 16 13 8 354 356 332 302 294 300 313 23 12 351 169 159 168 195 209 202 195 236 243 226 225 224 197 227 222 206 222 240 244 245 233 228 229 217 208 205 203 206 209 211 212 211 212 214
233 183 183 176 165 179 196 204 212 205 193 182 147 124 124 135 125 55 35 31 40 31 17 42 53 23 39 65 54 55 77 66 38 21 30 57 77 50 28 31 28 3 3 10 344 349 344 312 299 301 314 22 19 52 160 148 148 183 214 194 192 249 235 207 208 218 200 222 275 219 229 242 237 235 236 231 223 215 214 210 206 206 208 211 212 212 212 213
160 151 152 152 150 160 184 201 209 201 188 176 145 124 146 159 177 258 7 7 358 1 3 33 44 17 69 78 37 51 73 64 42 28 36 56 65 45 21 15 14 348 345 360 351 350 355 335 308 299 287 9 18 51 70 45 60 90 194 191 203 261 253 216 218 235 206 181 252 258 254 247 236 236 248 243 225 219 220 216 213 211 210 211 213 213 213 214
154 153 149 142 138 146 177 194 202 198 193 191 161 105 151 197 210 217 281 358 299 277 337 34 21 11 85 37 356 58 63 38 39 43 51 50 22 3 355 355 359 354 343 348 352 349 353 347 319 306 293 10 28 46 57 50 45 48 130 174 200 269 256 245 250 249 231 179 157 137 249 250 237 236 246 245 231 228 229 224 218 214 213 215 216 216 216 217
161 166 171 156 148 156 169 173 200 207 203 205 204 35 358 274 218 196 200 189 206 228 244 44 10 6 49 354 338 98 48 27 70 64 66 73 33 3 313 332 338 347 339 328 341 348 347 341 320 313 314 355 30 43 57 64 55 46 64 98 81 346 257 230 247 245 233 218 182 166 217 253 233 229 234 235 234 236 236 226 215 212 215 219 220 218 217 218
182 183 202 205 190 186 178 170 199 210 194 145 343 3 360 303 264 231 206 210 226 234 230 169 204 304 319 328 310 292 12 33 153 70 100 129 97 58 329 330 326 332 337 336 352 352 342 332 317 319 334 325 306 32 46 51 57 43 44 54 59 22 349 223 215 250 231 227 212 198 218 279 234 227 226 229 235 237 232 219 209 209 213 218 220 217 215 217
197 190 210 232 226 207 200 191 194 199 190 324 291 296 331 301 279 265 232 219 231 234 233 247 182 172 233 239 261 287 303 309 276 100 130 145 125 65 314 314 309 316 330 346 1 358 348 337 324 322 333 310 234 214 43 36 40 42 25 25 30 12 346 240 214 237 217 200 204 205 207 270 232 228 224 226 233 231 226 221 215 217 216 211 209 209 210 213
200 191 208 231 228 208 206 204 201 211 255 287 264 252 306 310 284 250 228 215 226 251 276 271 241 210 211 213 233 269 274 248 230 218 195 185 157 130 308 312 309 311 320 333 349 355 355 343 335 331 335 330 246 230 253 325 19 34 26 15 11 3 347 210 209 220 215 211 213 208 158 170 226 227 221 223 227 223 222 227 230 231 228 212 202 203 207 209
206 201 208 223 224 216 217 224 230 241 265 271 251 268 307 319 283 226 214 219 237 266 295 268 237 222 197 186 229 249 253 258 254 255 264 261 249 243 260 290 303 304 316 331 332 339 350 351 359 28 68 75 232 265 303 332 359 17 19 11 8 8 11 349 213 204 202 223 230 199 103 207 224 220 216 219 221 216 215 223 229 227 223 214 204 203 207 210
212 209 212 220 225 227 230 235 241 248 262 265 259 284 307 327 303 219 210 229 243 245 285 252 222 216 208 206 218 193 215 248 253 259 274 277 269 261 262 280 299 300 299 315 322 326 344 6 24 55 103 115 170 248 319 7 353 357 6 7 6 7 5 354 282 179 198 220 243 343 324 239 221 213 210 216 218 214 211 215 220 220 218 216 211 208 208 212
218 216 216 219 225 230 233 238 243 248 259 266 269 291 303 309 289 238 228 239 238 216 223 227 211 209 204 195 183 153 179 226 239 267 282 284 274 270 273 278 290 299 295 299 308 326 4 22 28 33 56 83 73 349 242 258 325 349 0 4 9 8 360 357 17 29 327 238 302 332 300 233 212 207 204 213 217 216 216 215 215 222 228 228 225 223 221 221
229 227 222 220 222 226 227 233 240 244 254 260 268 292 297 284 269 259 247 237 219 200 201 198 192 209 213 205 208 212 242 248 262 281 285 287 286 286 288 279 275 282 290 306 314 327 17 21 23 22 16 116 106 44 267 257 270 312 336 349 5 8 2 1 10 10 352 226 229 300 288 209 196 200 199 212 220 221 225 223 218 229 245 248 242 238 240 241
240 236 232 226 225 227 227 230 236 241 248 252 260 283 292 279 271 263 241 230 219 201 197 197 182 191 219 235 242 238 231 245 266 284 289 296 302 317 341 321 290 279 267 284 352 349 333 41 44 16 20 134 180 198 221 263 258 260 285 308 334 356 5 5 5 9 14 72 194 264 273 179 158 148 148 196 220 224 230 231 229 233 242 249 246 242 245 250
249 244 241 235 231 232 233 234 237 241 244 244 250 274 288 276 272 248 224 225 223 203 199 213 213 195 206 227 237 240 242 260 276 282 287 302 306 312 345 346 349 356 298 264 356 349 309 52 73 43 109 132 169 196 209 252 259 247 260 275 282 318 349 2 21 34 43 78 187 226 220 159 133 118 114 169 213 221 229 231 237 233 226 229 239 246 248 246
257 252 247 243 239 237 237 239 241 242 244 241 245 261 262 233 251 275 226 219 222 216 211 223 228 224 233 243 244 248 248 254 271 273 265 275 286 288 304 320 328 347 3 338 338 326 297 97 130 137 129 147 169 204 224 242 246 234 243 260 261 281 323 347 10 41 83 138 192 207 175 148 140 124 116 182 217 227 239 241 252 250 231 226 235 248 251 247
267 262 254 249 247 243 240 241 242 243 245 245 246 255 251 233 263 312 226 207 210 217 217 221 225 230 242 246 241 240 233 222 237 252 254 257 264 266 265 282 309 317 299 306 323 312 60 22 227 252 164 163 175 218 235 234 237 231 240 256 258 274 319 338 334 334 338 151 177 187 151 138 163 146 99 306 271 290 294 281 282 275 254 246 251 260 260 257
Height
3155 3155 3154 3154 3153 3152 3152 3151 3151 3150 3150 3149 3149 3149 3149 3148 3148 3148 3148 3147 3147 3147 3147 3147 3147 3147 3148 3148 3148 3149 3150 3151 3152 3152 3153 3154 3155 3156 3157 3157 3158 3159 3160 3161 3162 3162 3163 3164 3164 3164 3164 3164 3165 3166 3167 3167 3166 3166 3166 3166 3167 3168 3168 3169 3169 3170 3170 3171 3172 3173 3174 3175 3175 3175 3176 3177 3178 3179 3178 3178 3180 3181 3182 3183 3184 3184 3185 3186
3156 3155 3154 3154 3153 3153 3152 3151 3151 3150 3150 3150 3149 3149 3149 3148 3148 3148 3147 3147 3147 3147 3147 3147 3146 3147 3147 3147 3147 3148 3148 3149 3150 3151 3152 3153 3154 3155 3156 3157 3157 3158 3159 3160 3161 3162 3163 3163 3163 3163 3164 3164 3165 3166 3166 3166 3166 3166 3166 3167 3168 3169 3169 3169 3170 3171 3171 3171 3172 3173 3175 3175 3175 3176 3176 3177 3177 3178 3178 3178 3180 3181 3181 3182 3183 3184 3185 3187
3156 3155 3155 3154 3154 3153 3152 3152 3151 3151 3150 3150 3149 3149 3149 3148 3148 3148 3147 3147 3147 3147 3146 3146 3146 3146 3146 3146 3146 3147 3147 3148 3149 3150 3151 3152 3153 3154 3155 3156 3156 3157 3158 3159 3160 3161 3161 3162 3163 3163 3163 3164 3165 3165 3166 3166 3167 3166 3166 3167 3168 3169 3169 3169 3170 3171 3171 3172 3173 3174 3175 3176 3176 3176 3177 3177 3177 3178 3178 3178 3179 3180 3181 3182 3183 3185 3186 3187
3156 3156 3155 3154 3154 3153 3153 3152 3151 3151 3150 3150 3150 3149 3149 3149 3148 3148 3147 3147 3147 3147 3146 3146 3145 3145 3145 3145 3145 3146 3146 3147 3148 3149 3150 3151 3152 3152 3153 3155 3156 3156 3157 3159 3160 3160 3160 3161 3162 3163 3163 3164 3165 3165 3166 3166 3166 3166 3166 3167 3168 3169 3169 3170 3170 3171 3171 3172 3174 3175 3175 3176 3176 3176 3177 3177 3177 3178 3178 3179 3180 3181 3182 3183 3184 3185 3186 3187
3156 3156 3155 3155 3154 3154 3153 3152 3152 3151 3151 3150 3150 3149 3149 3149 3148 3148 3148 3147 3147 3146 3146 3145 3145 3144 3144 3144 3144 3145 3145 3146 3147 3148 3149 3150 3151 3151 3152 3154 3155 3155 3156 3158 3159 3159 3160 3161 3162 3163 3163 3164 3164 3165 3166 3166 3166 3166 3166 3167 3167 3168 3169 3170 3170 3171 3171 3171 3173 3175 3176 3176 3176 3177 3177 3177 3178 3179 3179 3180 3182 3182 3184 3185 3185 3186 3186 3188
3157 3156 3156 3155 3155 3154 3153 3153 3152 3152 3151 3151 3150 3149 3149 3149 3148 3148 3148 3147 3147 3146 3146 3145 3145 3144 3144 3144 3144 3144 3145 3145 3146 3147 3148 3149 3150 3150 3151 3152 3153 3154 3156 3157 3158 3159 3160 3161 3162 3163 3164 3164 3165 3166 3166 3166 3166 3166 3166 3167 3167 3168 3168 3168 3169 3169 3170 3170 3172 3175 3176 3176 3176 3177 3178 3178 3179 3180 3180 3181 3182 3183 3184 3186 3187 3187 3187 3188
3157 3157 3156 3156 3155 3154 3154 3153 3153 3152 3151 3151 3150 3150 3149 3149 3148 3148 3147 3147 3147 3146 3146 3145 3144 3144 3144 3144 3143 3144 3144 3144 3145 3146 3147 3148 3148 3149 3150 3151 3152 3153 3155 3156 3157 3159 3160 3161 3162 3163 3164 3165 3165 3166 3165 3165 3165 3165 3165 3166 3167 3167 3167 3167 3167 3167 3168 3168 3170 3173 3174 3175 3175 3176 3177 3178 3180 3180 3180 3182 3183 3183 3184 3187 3188 3188 3188 3189
3158 3157 3157 3156 3155 3155 3154 3154 3153 3152 3152 3151 3150 3150 3149 3149 3148 3148 3147 3147 3147 3146 3146 3145 3145 3144 3144 3143 3143 3143 3144 3144 3145 3145 3146 3147 3147 3148 3149 3150 3151 3153 3154 3156 3157 3158 3159 3161 3162 3164 3164 3165 3165 3165 3165 3165 3165 3165 3164 3165 3166 3166 3166 3165 3164 3163 3164 3166 3168 3170 3172 3174 3176 3176 3176 3177 3180 3180 3181 3182 3183 3183 3185 3186 3188 3188 3189 3189
3158 3158 3157 3157 3156 3155 3155 3154 3153 3153 3152 3151 3150 3150 3149 3149 3148 3148 3147 3147 3146 3146 3145 3145 3144 3144 3143 3143 3143 3143 3143 3143 3144 3145 3145 3146 3146 3147 3149 3150 3151 3152 3153 3155 3156 3157 3158 3161 3162 3163 3164 3164 3165 3164 3165 3164 3164 3164 3164 3165 3166 3165 3164 3163 3161 3160 3160 3162 3166 3169 3171 3173 3175 3176 3177 3178 3179 3180 3181 3182 3183 3184 3185 3187 3188 3189 3189 3190
3159 3158 3158 3157 3157 3156 3155 3154 3154 3153 3152 3151 3150 3150 3149 3149 3148 3148 3147 3147 3146 3146 3145 3145 3144 3144 3143 3143 3143 3143 3143 3143 3143 3144 3144 3145 3146 3146 3147 3149 3150 3151 3153 3154 3155 3157 3159 3161 3161 3162 3163 3163 3163 3163 3163 3164 3164 3164 3164 3165 3166 3164 3163 3162 3160 3159 3159 3162 3165 3168 3171 3173 3174 3176 3177 3178 3179 3180 3181 3182 3184 3184 3185 3187 3188 3189 3190 3190
3159 3159 3158 3158 3157 3156 3156 3155 3154 3153 3152 3151 3151 3150 3149 3149 3148 3148 3147 3147 3146 3146 3145 3145 3144 3144 3144 3143 3143 3143 3143 3142 3143 3144 3144 3144 3145 3146 3147 3148 3149 3151 3152 3153 3155 3158 3159 3160 3160 3161 3162 3162 3162 3162 3162 3162 3163 3163 3164 3165 3165 3164 3163 3161 3160 3158 3159 3162 3164 3166 3170 3172 3173 3175 3176 3178 3179 3180 3182 3182 3183 3185 3186 3187 3188 3190 3190 3191
3160 3159 3159 3158 3158 3157 3156 3155 3154 3153 3153 3152 3151 3150 3150 3149 3149 3148 3148 3147 3147 3146 3146 3145 3145 3144 3144 3144 3143 3143 3142 3142 3142 3142 3143 3143 3144 3145 3146 3147 3149 3150 3151 3153 3156 3157 3158 3159 3160 3161 3161 3161 3162 3162 3162 3162 3162 3163 3165 3165 3164 3164 3163 3161 3160 3159 3160 3162 3163 3166 3169 3171 3173 3174 3176 3178 3180 3181 3182 3183 3183 3185 3186 3187 3188 3189 3190 3191
3160 3160 3159 3159 3158 3157 3156 3155 3154 3154 3153 3152 3152 3151 3150 3150 3149 3149 3148 3148 3147 3146 3146 3146 3146 3145 3144 3144 3144 3143 3142 3141 3141 3141 3141 3142 3143 3144 3145 3146 3148 3149 3151 3153 3155 3156 3157 3158 3159 3160 3160 3160 3161 3161 3162 3162 3163 3164 3165 3165 3164 3164 3163 3162 3161 3161 3161 3162 3163 3165 3168 3170 3172 3174 3175 3177 3180 3181 3182 3183 3183 3184 3186 3187 3188 3189 3190 3192
3161 3160 3160 3159 3158 3157 3157 3156 3155 3154 3154 3153 3152 3152 3151 3150 3150 3149 3149 3148 3147 3147 3147 3146 3146 3145 3145 3145 3144 3143 3142 3141 3140 3140 3141 3141 3143 3143 3145 3146 3147 3149 3150 3152 3154 3155 3156 3156 3157 3159 3160 3160 3160 3161 3162 3162 3163 3164 3164 3164 3164 3164 3163 3162 3161 3162 3162 3162 3163 3165 3167 3170 3172 3174 3175 3175 3179 3181 3181 3182 3183 3184 3185 3187 3188 3188 3190 3192
3161 3160 3160 3159 3159 3158 3157 3156 3155 3155 3154 3154 3153 3152 3152 3151 3151 3150 3150 3149 3148 3147 3147 3147 3146 3146 3145 3145 3144 3143 3143 3142 3141 3140 3141 3141 3142 3143 3144 3145 3146 3148 3149 3151 3153 3154 3155 3155 3156 3158 3159 3159 3160 3160 3162 3162 3163 3164 3164 3164 3164 3164 3163 3162 3161 3161 3162 3164 3165 3166 3168 3170 3172 3174 3175 3175 3177 3180 3182 3182 3183 3184 3185 3187 3187 3188 3190 3192
3161 3161 3160 3160 3159 3158 3157 3157 3156 3155 3155 3154 3154 3153 3153 3152 3151 3151 3150 3150 3149 3148 3148 3148 3147 3146 3146 3145 3144 3143 3143 3142 3141 3141 3141 3141 3142 3143 3143 3144 3146 3147 3149 3150 3152 3153 3154 3154 3156 3158 3158 3159 3160 3160 3161 3162 3162 3163 3163 3164 3164 3164 3163 3162 3161 3162 3162 3164 3165 3166 3168 3170 3172 3174 3174 3175 3177 3180 3182 3182 3183 3184 3185 3186 3187 3188 3190 3191
3161 3161 3160 3160 3159 3158 3158 3157 3157 3156 3155 3155 3154 3154 3154 3153 3152 3152 3151 3151 3150 3149 3149 3148 3147 3147 3146 3145 3144 3144 3143 3143 3142 3142 3142 3142 3142 3143 3143 3144 3145 3147 3149 3150 3150 3151 3153 3154 3155 3157 3158 3158 3159 3160 3161 3161 3161 3162 3163 3164 3164 3164 3163 3162 3161 3162 3162 3164 3165 3167 3169 3170 3172 3174 3174 3174 3176 3179 3181 3182 3183 3184 3185 3186 3187 3188 3189 3190
3161 3161 3160 3160 3159 3159 3158 3157 3157 3156 3156 3155 3154 3154 3154 3153 3153 3152 3152 3152 3151 3150 3149 3149 3148 3147 3147 3145 3144 3144 3143 3143 3144 3143 3143 3143 3143 3143 3144 3144 3145 3146 3148 3149 3149 3151 3152 3153 3155 3156 3157 3158 3159 3159 3159 3159 3160 3161 3162 3163 3164 3163 3163 3162 3162 3162 3162 3164 3165 3167 3169 3170 3171 3173 3174 3174 3175 3178 3180 3182 3183 3184 3185 3186 3186 3188 3189 3190
3161 3160 3160 3160 3159 3159 3158 3158 3157 3157 3156 3155 3155 3154 3153 3153 3153 3152 3153 3152 3152 3151 3150 3149 3148 3148 3147 3146 3145 3145 3144 3144 3145 3144 3144 3144 3143 3144 3144 3145 3145 3146 3147 3149 3150 3151 3151 3152 3153 3154 3155 3157 3158 3158 3159 3160 3161 3162 3162 3163 3163 3163 3162 3162 3162 3163 3163 3164 3165 3167 3169 3170 3171 3172 3173 3174 3175 3177 3180 3182 3183 3184 3184 3185 3186 3187 3188 3189
3161 3160 3160 3159 3159 3159 3158 3158 3157 3157 3156 3155 3155 3154 3154 3153 3153 3153 3153 3153 3152 3151 3150 3149 3148 3148 3148 3147 3146 3145 3145 3145 3145 3145 3144 3144 3144 3144 3145 3145 3145 3146 3147 3149 3150 3151 3151 3151 3152 3153 3155 3157 3158 3159 3160 3162 3162 3162 3162 3163 3163 3163 3163 3162 3162 3163 3164 3164 3165 3167 3169 3171 3172 3172 3173 3174 3175 3177 3179 3180 3182 3183 3183 3184 3186 3187 3188 3189
3161 3160 3160 3159 3159 3159 3158 3158 3158 3157 3157 3156 3156 3155 3154 3154 3153 3153 3153 3153 3152 3151 3150 3150 3149 3149 3148 3147 3147 3145 3145 3146 3146 3146 3145 3145 3145 3145 3145 3146 3147 3147 3148 3149 3150 3150 3151 3150 3150 3153 3155 3157 3158 3159 3160 3161 3162 3162 3162 3162 3163 3163 3163 3163 3162 3163 3164 3165 3166 3167 3168 3169 3170 3171 3172 3174 3175 3176 3177 3179 3181 3182 3183 3184 3185 3187 3188 3189
3160 3160 3160 3159 3159 3159 3159 3158 3158 3158 3158 3157 3157 3156 3155 3155 3154 3154 3153 3153 3153 3152 3151 3150 3150 3150 3149 3148 3147 3146 3146 3147 3147 3146 3146 3146 3146 3146 3146 3147 3148 3148 3148 3149 3149 3150 3150 3148 3150 3153 3156 3157 3158 3158 3160 3160 3161 3162 3161 3161 3162 3162 3163 3163 3162 3163 3164 3165 3166 3167 3168 3168 3169 3170 3172 3173 3174 3175 3176 3178 3180 3182 3182 3183 3185 3186 3188 3189
3160 3160 3159 3159 3159 3159 3159 3159 3159 3158 3158 3158 3157 3156 3156 3155 3155 3154 3153 3153 3153 3152 3151 3151 3151 3150 3150 3149 3148 3147 3147 3148 3148 3147 3147 3147 3147 3147 3148 3148 3148 3148 3149 3149 3150 3150 3149 3148 3151 3154 3155 3155 3155 3157 3159 3159 3160 3161 3160 3160 3160 3161 3162 3162 3161 3162 3163 3165 3166 3167 3168 3168 3168 3169 3170 3172 3173 3174 3176 3177 3179 3180 3182 3183 3184 3186 3187 3188
3160 3160 3159 3159 3159 3158 3159 3159 3159 3159 3158 3158 3158 3157 3156 3156 3156 3155 3154 3153 3153 3153 3152 3152 3151 3151 3151 3150 3149 3148 3148 3148 3148 3148 3148 3148 3148 3149 3149 3149 3149 3149 3149 3150 3150 3150 3149 3149 3152 3153 3153 3153 3153 3155 3157 3158 3158 3159 3159 3158 3158 3159 3161 3161 3161 3162 3163 3165 3165 3167 3168 3167 3167 3169 3169 3171 3172 3173 3174 3176 3177 3179 3181 3182 3184 3185 3187 3188
3160 3159 3159 3158 3158 3158 3158 3159 3159 3159 3158 3158 3158 3157 3157 3156 3156 3155 3155 3154 3154 3153 3152 3152 3151 3151 3151 3151 3150 3150 3150 3150 3149 3149 3149 3149 3149 3149 3149 3150 3149 3149 3150 3150 3150 3149 3148 3150 3151 3151 3151 3152 3152 3153 3155 3156 3157 3158 3157 3156 3157 3159 3160 3161 3161 3161 3163 3164 3164 3166 3167 3165 3166 3168 3168 3169 3170 3171 3173 3174 3176 3177 3179 3181 3182 3184 3186 3187
3159 3159 3158 3158 3158 3158 3158 3158 3158 3158 3158 3158 3158 3158 3157 3156 3156 3156 3155 3155 3154 3153 3153 3152 3152 3152 3152 3151 3151 3151 3151 3151 3150 3149 3149 3150 3150 3150 3150 3150 3150 3150 3150 3149 3149 3148 3148 3149 3149 3149 3149 3150 3150 3151 3153 3155 3157 3156 3155 3155 3156 3158 3159 3160 3160 3160 3161 3161 3161 3163 3164 3163 3163 3164 3165 3166 3168 3169 3171 3172 3173 3175 3176 3178 3180 3182 3184 3185
3159 3158 3158 3158 3157 3157 3158 3158 3158 3158 3158 3158 3158 3158 3157 3157 3156 3156 3155 3155 3154 3153 3153 3152 3152 3152 3152 3152 3152 3152 3151 3151 3150 3150 3150 3150 3150 3150 3151 3150 3150 3150 3149 3149 3148 3147 3148 3147 3148 3148 3147 3148 3148 3149 3152 3154 3155 3154 3154 3155 3155 3156 3157 3157 3158 3158 3158 3158 3160 3162 3163 3163 3161 3159 3162 3164 3165 3167 3168 3169 3170 3172 3174 3176 3178 3181 3182 3184
3158 3158 3157 3157 3157 3157 3157 3157 3158 3158 3158 3158 3158 3158 3157 3157 3156 3156 3155 3156 3155 3153 3153 3153 3153 3153 3152 3153 3153 3152 3152 3151 3151 3151 3151 3150 3150 3150 3151 3150 3150 3150 3149 3149 3147 3147 3147 3146 3147 3146 3146 3146 3146 3148 3151 3153 3153 3153 3154 3154 3153 3154 3155 3156 3158 3158 3158 3159 3159 3160 3162 3163 3159 3156 3159 3162 3163 3164 3163 3165 3167 3169 3171 3173 3176 3179 3181 3182
3158 3157 3157 3157 3157 3157 3157 3157 3157 3157 3158 3158 3158 3158 3157 3157 3156 3155 3155 3156 3155 3153 3153 3153 3153 3153 3152 3153 3153 3152 3152 3152 3152 3152 3151 3151 3150 3150 3150 3150 3150 3149 3149 3148 3147 3147 3146 3146 3145 3145 3145 3145 3145 3147 3149 3151 3152 3152 3153 3152 3151 3153 3154 3157 3159 3159 3160 3159 3157 3157 3159 3160 3157 3154 3156 3159 3160 3158 3158 3160 3164 3166 3169 3171 3174 3176 3179 3180
3157 3156 3156 3156 3156 3156 3156 3156 3157 3157 3158 3158 3158 3157 3157 3157 3156 3155 3156 3156 3154 3154 3154 3153 3152 3152 3152 3152 3153 3153 3152 3152 3152 3152 3151 3151 3151 3150 3150 3150 3149 3149 3148 3147 3147 3146 3145 3145 3145 3144 3144 3145 3145 3146 3147 3149 3150 3150 3151 3151 3150 3152 3154 3157 3158 3160 3161 3158 3153 3154 3156 3158 3156 3152 3152 3154 3152 3151 3152 3155 3159 3163 3166 3169 3171 3174 3176 3178
3156 3156 3156 3156 3156 3156 3156 3156 3156 3157 3157 3158 3158 3158 3157 3157 3156 3155 3156 3156 3155 3154 3154 3153 3152 3152 3152 3152 3152 3152 3152 3152 3152 3152 3151 3151 3151 3150 3150 3150 3149 3148 3147 3146 3146 3145 3145 3145 3145 3144 3144 3145 3145 3146 3146 3147 3147 3148 3149 3149 3150 3154 3155 3157 3159 3162 3162 3156 3152 3153 3155 3158 3156 3150 3149 3149 3148 3148 3149 3150 3154 3158 3162 3165 3169 3171 3174 3176
3155 3155 3155 3155 3155 3155 3155 3156 3156 3157 3157 3157 3158 3158 3157 3157 3156 3156 3156 3156 3155 3154 3154 3153 3152 3152 3152 3151 3152 3152 3152 3152 3151 3151 3151 3151 3151 3150 3150 3149 3149 3148 3147 3146 3145 3144 3144 3144 3144 3144 3145 3145 3144 3145 3145 3144 3145 3146 3147 3148 3151 3156 3158 3159 3159 3160 3159 3155 3153 3154 3155 3157 3153 3147 3147 3147 3147 3148 3148 3148 3151 3155 3158 3162 3166 3169 3172 3174
3155 3155 3154 3154 3154 3154 3155 3155 3156 3156 3157 3157 3158 3157 3157 3156 3156 3156 3156 3156 3155 3155 3154 3153 3152 3152 3152 3152 3152 3152 3152 3152 3151 3151 3151 3150 3150 3150 3150 3149 3149 3148 3147 3147 3146 3144 3143 3143 3143 3143 3144 3143 3143 3144 3144 3143 3143 3144 3145 3147 3150 3155 3159 3160 3159 3158 3156 3153 3152 3154 3156 3156 3150 3146 3146 3146 3146 3147 3148 3149 3151 3154 3157 3160 3163 3167 3170 3172
3154 3154 3154 3154 3154 3154 3154 3155 3155 3156 3157 3157 3157 3157 3157 3156 3156 3156 3156 3156 3155 3155 3154 3154 3153 3153 3153 3153 3153 3153 3152 3152 3152 3151 3150 3149 3149 3150 3150 3149 3149 3148 3147 3147 3147 3146 3145 3144 3143 3143 3143 3143 3143 3143 3143 3143 3143 3144 3145 3146 3147 3149 3153 3156 3157 3156 3154 3152 3152 3154 3155 3152 3147 3145 3144 3144 3145 3146 3147 3149 3151 3153 3156 3159 3162 3165 3168 3170
3153 3153 3153 3153 3153 3153 3154 3154 3155 3156 3157 3157 3157 3157 3157 3157 3157 3156 3156 3155 3155 3155 3154 3154 3154 3153 3153 3153 3153 3153 3153 3152 3151 3151 3150 3149 3148 3149 3149 3149 3149 3148 3147 3147 3146 3146 3145 3144 3143 3144 3144 3143 3142 3142 3143 3143 3144 3145 3146 3146 3146 3147 3149 3151 3152 3151 3151 3152 3153 3153 3150 3146 3144 3143 3143 3143 3144 3145 3146 3149 3150 3152 3155 3158 3160 3163 3165 3167
3153 3153 3153 3153 3153 3153 3153 3154 3154 3155 3156 3157 3157 3157 3157 3157 3157 3156 3155 3155 3155 3154 3154 3154 3153 3153 3153 3153 3153 3153 3152 3152 3151 3151 3150 3149 3149 3149 3149 3149 3148 3148 3147 3147 3146 3146 3145 3143 3142 3143 3144 3143 3142 3142 3143 3143 3144 3146 3146 3145 3146 3148 3149 3150 3151 3150 3151 3152 3151 3149 3146 3144 3143 3143 3142 3142 3143 3144 3145 3146 3148 3150 3152 3155 3157 3159 3162 3165
3152 3152 3152 3152 3152 3152 3153 3153 3154 3155 3156 3157 3157 3157 3157 3157 3156 3156 3155 3155 3155 3155 3154 3153 3153 3153 3154 3153 3153 3153 3152 3152 3151 3151 3150 3149 3149 3149 3149 3149 3148 3148 3147 3147 3147 3146 3145 3143 3142 3142 3143 3143 3142 3142 3142 3144 3145 3145 3145 3145 3147 3148 3149 3150 3151 3151 3151 3151 3149 3146 3144 3143 3143 3142 3140 3141 3142 3143 3144 3145 3146 3148 3150 3152 3154 3157 3160 3163
3152 3152 3152 3152 3152 3152 3153 3153 3154 3155 3156 3156 3157 3156 3156 3156 3156 3155 3155 3155 3155 3155 3154 3153 3153 3153 3153 3153 3153 3152 3152 3152 3151 3151 3150 3150 3150 3150 3149 3149 3149 3148 3148 3148 3147 3147 3145 3143 3141 3142 3143 3143 3142 3141 3142 3144 3143 3142 3143 3144 3146 3147 3147 3148 3150 3150 3149 3150 3148 3145 3144 3143 3142 3140 3139 3140 3141 3142 3143 3144 3145 3146 3147 3149 3152 3156 3159 3162
3152 3151 3151 3151 3151 3152 3152 3153 3153 3154 3155 3156 3156 3156 3156 3156 3155 3155 3155 3154 3155 3155 3154 3153 3153 3154 3153 3153 3153 3152 3152 3152 3151 3151 3150 3150 3150 3150 3149 3149 3149 3149 3148 3148 3147 3146 3146 3144 3142 3142 3142 3143 3141 3140 3141 3143 3142 3141 3142 3143 3144 3146 3147 3147 3147 3146 3146 3147 3147 3146 3145 3142 3140 3139 3140 3140 3141 3141 3142 3143 3144 3145 3147 3149 3151 3154 3157 3160
3152 3151 3151 3151 3151 3151 3152 3152 3153 3154 3154 3155 3155 3155 3155 3155 3154 3154 3154 3154 3154 3154 3153 3153 3153 3153 3153 3153 3153 3152 3152 3152 3151 3151 3151 3151 3150 3150 3150 3149 3149 3149 3148 3148 3147 3146 3146 3145 3144 3142 3143 3144 3145 3144 3144 3144 3144 3143 3142 3142 3145 3146 3146 3145 3145 3144 3143 3144 3145 3146 3145 3140 3138 3139 3140 3140 3141 3141 3142 3143 3144 3146 3147 3149 3151 3153 3156 3158
3152 3151 3151 3151 3152 3151 3152 3152 3153 3153 3154 3154 3155 3155 3154 3154 3153 3153 3153 3153 3153 3153 3153 3153 3153 3153 3153 3153 3152 3152 3152 3152 3151 3151 3151 3151 3150 3150 3150 3149 3149 3149 3148 3148 3147 3146 3146 3145 3144 3143 3144 3147 3150 3149 3146 3146 3147 3145 3143 3143 3145 3146 3145 3144 3143 3143 3142 3141 3141 3142 3141 3138 3138 3138 3139 3140 3141 3141 3142 3143 3145 3146 3148 3150 3151 3152 3154 3157
3152 3151 3151 3151 3151 3152 3151 3151 3152 3152 3153 3154 3154 3154 3154 3153 3153 3153 3152 3152 3152 3152 3151 3152 3152 3152 3152 3152 3152 3152 3152 3151 3151 3151 3151 3150 3150 3150 3150 3150 3149 3149 3148 3147 3147 3146 3146 3145 3144 3144 3144 3147 3150 3150 3147 3147 3146 3145 3144 3143 3144 3144 3143 3142 3142 3141 3141 3140 3139 3138 3137 3137 3137 3137 3137 3139 3140 3140 3141 3143 3144 3146 3148 3149 3150 3152 3154 3156
3151 3151 3151 3151 3151 3151 3151 3151 3151 3151 3152 3153 3152 3152 3152 3152 3151 3151 3151 3151 3152 3151 3151 3151 3151 3151 3151 3151 3151 3151 3151 3151 3151 3151 3151 3150 3150 3150 3150 3150 3149 3149 3148 3147 3147 3146 3146 3145 3144 3144 3143 3145 3147 3148 3147 3147 3145 3144 3143 3142 3142 3143 3141 3140 3140 3140 3139 3139 3138 3137 3137 3137 3137 3137 3137 3138 3139 3140 3141 3142 3144 3146 3147 3148 3149 3151 3152 3154
3150 3151 3150 3150 3150 3150 3150 3151 3150 3150 3150 3150 3150 3150 3150 3150 3150 3150 3150 3150 3151 3150 3150 3150 3150 3150 3150 3150 3150 3150 3151 3151 3151 3151 3151 3150 3150 3150 3149 3149 3149 3148 3148 3147 3147 3146 3146 3145 3144 3143 3143 3144 3147 3147 3146 3146 3145 3144 3144 3143 3142 3142 3140 3139 3139 3138 3138 3138 3137 3137 3137 3137 3136 3136 3137 3138 3139 3140 3141 3142 3143 3145 3146 3147 3148 3149 3150 3152
3149 3149 3149 3149 3149 3149 3149 3149 3149 3148 3148 3148 3148 3149 3149 3149 3148 3148 3148 3149 3149 3149 3149 3149 3149 3149 3149 3149 3149 3150 3150 3150 3150 3151 3150 3150 3150 3150 3149 3149 3148 3148 3147 3147 3147 3146 3146 3145 3145 3143 3144 3146 3149 3149 3147 3146 3146 3146 3145 3144 3142 3141 3139 3138 3137 3137 3136 3136 3136 3136 3137 3137 3136 3136 3137 3137 3138 3139 3141 3142 3143 3144 3146 3146 3147 3148 3149 3151
3147 3148 3148 3148 3148 3148 3148 3148 3147 3148 3148 3147 3147 3148 3148 3148 3147 3147 3148 3148 3148 3148 3148 3148 3148 3148 3148 3148 3148 3149 3149 3149 3150 3150 3150 3150 3150 3149 3149 3148 3148 3148 3147 3147 3147 3146 3146 3145 3144 3143 3143 3144 3145 3147 3148 3147 3147 3146 3145 3144 3142 3141 3139 3138 3137 3136 3135 3135 3136 3136 3136 3137 3137 3137 3137 3137 3138 3139 3140 3141 3142 3143 3144 3145 3145 3146 3147 3148
3145 3146 3146 3147 3147 3147 3147 3147 3147 3147 3147 3147 3147 3147 3147 3147 3147 3147 3147 3147 3147 3147 3146 3146 3146 3147 3147 3147 3148 3148 3148 3149 3149 3149 3149 3149 3148 3148 3148 3148 3147 3147 3147 3146 3146 3146 3145 3145 3145 3143 3143 3142 3142 3144 3147 3147 3146 3146 3145 3144 3143 3141 3139 3138 3136 3136 3135 3135 3136 3136 3136 3136 3136 3137 3137 3137 3138 3139 3140 3141 3142 3143 3143 3144 3145 3146 3146 3146
3143 3143 3144 3145 3145 3145 3145 3146 3145 3146 3147 3147 3146 3146 3146 3145 3145 3146 3146 3146 3146 3145 3145 3145 3145 3146 3146 3146 3147 3147 3148 3148 3148 3148 3148 3147 3147 3147 3146 3146 3146 3146 3146 3146 3145 3145 3145 3145 3145 3143 3143 3143 3142 3142 3144 3145 3146 3145 3145 3145 3143 3141 3140 3138 3137 3136 3136 3135 3136 3136 3135 3136 3136 3137 3138 3139 3139 3140 3140 3141 3142 3143 3144 3145 3146 3147 3147 3148
3140 3140 3141 3142 3142 3143 3143 3144 3144 3145 3145 3146 3146 3145 3144 3143 3143 3143 3144 3144 3144 3144 3144 3144 3144 3145 3145 3145 3146 3146 3147 3147 3147 3147 3147 3147 3146 3146 3145 3145 3145 3145 3145 3145 3145 3145 3145 3145 3145 3143 3142 3142 3142 3142 3143 3144 3144 3145 3145 3144 3144 3143 3141 3139 3138 3137 3136 3135 3136 3136 3136 3136 3137 3138 3139 3139 3139 3140 3140 3140 3141 3142 3143 3144 3145 3146 3147 3148
3138 3138 3138 3139 3140 3140 3141 3142 3142 3143 3143 3144 3144 3143 3143 3142 3141 3141 3141 3142 3143 3143 3143 3143 3143 3144 3144 3144 3144 3145 3145 3145 3146 3146 3146 3146 3146 3146 3145 3145 3145 3144 3145 3145 3144 3145 3145 3145 3144 3143 3142 3143 3143 3143 3143 3143 3143 3144 3144 3144 3144 3144 3143 3142 3140 3138 3137 3137 3137 3137 3137 3138 3138 3138 3139 3140 3140 3140 3140 3140 3140 3141 3143 3144 3144 3145 3146 3147
3135 3135 3136 3136 3137 3138 3138 3139 3140 3140 3141 3141 3142 3142 3141 3141 3142 3141 3140 3141 3141 3141 3141 3142 3142 3143 3143 3143 3143 3143 3143 3144 3144 3144 3144 3145 3146 3146 3145 3145 3145 3144 3144 3144 3144 3144 3144 3144 3144 3144 3143 3143 3144 3144 3144 3144 3143 3143 3143 3142 3142 3143 3144 3143 3141 3139 3139 3138 3138 3139 3139 3139 3138 3138 3139 3140 3140 3140 3140 3139 3139 3140 3142 3143 3144 3144 3145 3145
3133 3133 3133 3133 3134 3135 3136 3137 3137 3138 3138 3139 3139 3140 3140 3140 3140 3140 3139 3140 3140 3141 3141 3141 3141 3142 3142 3141 3141 3142 3142 3143 3143 3142 3143 3144 3145 3145 3145 3145 3145 3144 3144 3144 3144 3144 3144 3144 3144 3144 3143 3143 3144 3144 3144 3143 3143 3142 3141 3141 3141 3142 3144 3144 3142 3140 3139 3139 3139 3139 3139 3139 3139 3139 3139 3140 3141 3141 3140 3140 3139 3140 3141 3142 3143 3143 3144 3144